FW4708 Weather Reports


Display with metric or nautical units.
time (UTC)temp
F
wind
direction
speed
MPH
gust
MPH
rain 1hr
in
rain 24hr
in
rain mn
in
humidity
%
barometer
mb
20200401112328 72 264 2.0 7.0 0.00 0.03 0.03 81 1009.1
20200401111831 72 241 2.0 8.0 0.01 0.03 0.03 81 1009.2
20200401111326 72 256 3.0 8.0 0.01 0.03 0.03 80 1009.3
20200401110826 72 263 2.0 8.0 0.01 0.03 0.03 80 1009.1
20200401110326 72 254 4.0 8.0 0.01 0.03 0.03 80 1009.1
20200401105840 72 241 3.0 9.0 0.01 0.03 0.03 80 1009.1
20200401105333 72 266 3.0 9.0 0.03 0.03 0.03 80 1008.9
20200401104839 72 262 3.0 7.0 0.03 0.03 0.03 80 1008.8
20200401104338 72 255 3.0 8.0 0.03 0.03 0.03 80 1008.9
20200401103830 72 250 3.0 6.0 0.03 0.03 0.03 80 1008.6
20200401103324 73 274 3.0 12.0 0.03 0.03 0.03 80 1008.4
20200401102824 73 285 4.0 12.0 0.03 0.03 0.03 80 1008.5
20200401102331 73 292 4.0 9.0 0.02 0.02 0.02 80 1008.5
20200401101824 73 288 3.0 8.0 0.02 0.02 0.02 80 1008.4
20200401101337 74 210 3.0 8.0 0.02 0.02 0.02 80 1008.4
20200401100849 74 300 4.0 10.0 0.02 0.02 0.02 79 1008.3
20200401100342 74 257 4.0 14.0 0.02 0.02 0.02 78 1008.4
20200401095831 75 297 6.0 14.0 0.02 0.02 0.02 77 1008.2
20200401095328 76 267 4.0 9.0 0.00 0.00 0.00 79 1008.0
20200401094838 76 231 3.0 12.0 0.00 0.00 0.00 79 1007.8
20200401094322 76 248 4.0 12.0 0.00 0.00 0.00 79 1007.8
20200401093845 76 284 4.0 10.0 0.00 0.00 0.00 79 1007.8
20200401093337 76 257 4.0 8.0 0.00 0.00 0.00 79 1007.7
20200401092851 76 262 3.0 10.0 0.00 0.00 0.00 79 1007.8
20200401092338 76 245 4.0 10.0 0.00 0.00 0.00 79 1007.7
20200401091347 76 255 4.0 8.0 0.00 0.00 0.00 79 1007.5
20200401090838 76 268 3.0 8.0 0.00 0.00 0.00 79 1007.6
20200401090333 76 257 3.0 7.0 0.00 0.00 0.00 79 1007.6
20200401085824 76 269 3.0 9.0 0.00 0.00 0.00 79 1007.6
20200401085349 76 281 4.0 10.0 0.00 0.00 0.00 79 1007.8
20200401084841 76 248 3.0 10.0 0.00 0.00 0.00 79 1007.6
20200401084332 76 227 5.0 11.0 0.00 0.00 0.00 79 1007.6
20200401083827 76 219 5.0 11.0 0.00 0.00 0.00 79 1007.5
20200401083337 76 258 4.0 8.0 0.00 0.00 0.00 79 1007.5
20200401082835 76 250 4.0 9.0 0.00 0.00 0.00 80 1007.5
20200401082329 76 236 4.0 9.0 0.00 0.00 0.00 80 1007.4
20200401081824 76 255 3.0 7.0 0.00 0.00 0.00 80 1007.5
20200401081337 75 228 2.0 7.0 0.00 0.00 0.00 80 1007.4
20200401080832 75 195 2.0 7.0 0.00 0.00 0.00 80 1007.3
20200401080325 75 253 4.0 7.0 0.00 0.00 0.00 80 1007.4
20200401075834 75 278 3.0 6.0 0.00 0.00 0.00 80 1007.5
20200401075329 76 258 2.0 7.0 0.00 0.00 0.00 80 1007.6
20200401074823 76 262 4.0 10.0 0.00 0.00 0.00 80 1007.7
20200401074328 76 270 2.0 11.0 0.00 0.00 0.00 80 1007.7
20200401073851 76 244 4.0 11.0 0.00 0.00 0.00 80 1007.7
20200401073342 75 226 3.0 7.0 0.00 0.00 0.00 80 1007.8
20200401072832 75 262 3.0 6.0 0.00 0.00 0.00 80 1007.9
20200401072325 75 244 2.0 6.0 0.00 0.00 0.00 80 1007.8
20200401071848 75 237 2.0 7.0 0.00 0.00 0.00 80 1007.9
20200401071339 76 272 3.0 8.0 0.00 0.00 0.00 79 1008.1
20200401070833 76 229 3.0 8.0 0.00 0.00 0.00 80 1008.2
20200401070350 75 215 3.0 8.0 0.00 0.00 0.00 79 1008.3
20200401065840 76 250 3.0 7.0 0.00 0.00 0.00 79 1008.3
20200401065330 76 229 3.0 8.0 0.00 0.00 0.00 79 1008.3
20200401064846 76 258 3.0 9.0 0.00 0.00 0.00 79 1008.3
20200401064337 76 262 3.0 9.0 0.00 0.00 0.00 79 1008.4
20200401063830 76 283 3.0 7.0 0.00 0.00 0.00 79 1008.5
20200401063345 76 259 3.0 7.0 0.00 0.00 0.00 79 1008.5
20200401062836 76 274 3.0 7.0 0.00 0.00 0.00 79 1008.5
20200401062330 76 241 2.0 7.0 0.00 0.00 0.00 79 1008.6
20200401061824 76 245 3.0 7.0 0.00 0.00 0.00 79 1008.6
20200401061336 76 244 2.0 7.0 0.00 0.00 0.00 79 1008.7
20200401060838 76 252 3.0 8.0 0.00 0.00 0.00 79 1008.8
20200401060328 76 269 3.0 9.0 0.00 0.00 0.00 79 1008.8
20200401055839 76 256 3.0 9.0 0.00 0.00 0.00 79 1008.8
20200401055333 76 255 3.0 7.0 0.00 0.00 0.00 79 1008.9
20200401054830 76 266 2.0 7.0 0.00 0.00 0.00 79 1009.0
20200401054335 76 231 3.0 7.0 0.00 0.00 0.00 79 1008.9
20200401053831 76 237 2.0 5.0 0.00 0.00 0.00 79 1009.0
20200401053325 76 246 2.0 8.0 0.00 0.00 0.00 79 1009.1
20200401052835 76 263 3.0 8.0 0.00 0.00 0.00 79 1009.2
20200401052329 76 241 2.0 6.0 0.00 0.00 0.00 79 1009.3
20200401051837 76 256 3.0 9.0 0.00 0.00 0.00 79 1009.3
20200401051329 76 259 4.0 9.0 0.00 0.00 0.00 79 1009.5
20200401050825 76 259 4.0 9.0 0.00 0.00 0.00 79 1009.5
20200401050340 76 266 4.0 9.0 0.00 0.00 0.00 79 1009.7
20200401045831 76 252 3.0 8.0 0.00 0.00 0.00 80 1009.8
20200401045324 76 269 4.0 8.0 0.00 0.00 0.00 80 1009.8
20200401044825 76 243 4.0 8.0 0.00 0.00 0.00 80 1009.9
20200401044337 76 247 3.0 7.0 0.00 0.00 0.00 80 1009.9
20200401043823 76 289 3.0 8.0 0.00 0.00 0.00 80 1010.0
20200401043325 76 249 3.0 8.0 0.00 0.00 0.00 80 1010.0
20200401042832 76 259 3.0 8.0 0.00 0.00 0.00 80 1010.2
20200401042349 76 266 4.0 8.0 0.00 0.00 0.00 80 1010.2
20200401041825 76 238 2.0 7.0 0.00 0.00 0.00 80 1010.2
20200401041336 76 263 2.0 7.0 0.00 0.00 0.00 80 1010.3
20200401040823 76 255 3.0 7.0 0.00 0.00 0.00 80 1010.3
20200401040347 76 250 3.0 6.0 0.00 0.00 0.00 79 1010.3
20200401035838 76 273 4.0 8.0 0.00 0.00 0.00 79 1010.4
20200401035333 76 271 3.0 9.0 0.00 0.00 0.00 79 1010.4
20200401034849 76 276 3.0 9.0 0.00 0.00 0.00 79 1010.4
20200401034323 76 268 4.0 8.0 0.00 0.00 0.00 79 1010.4
20200401033833 76 271 3.0 6.0 0.00 0.00 0.00 79 1010.6
20200401033328 76 249 3.0 9.0 0.00 0.00 0.00 79 1010.6
20200401032849 77 239 4.0 9.0 0.00 0.00 0.00 79 1010.6
20200401032342 77 262 3.0 6.0 0.00 0.00 0.00 78 1010.6
20200401031836 77 209 3.0 6.0 0.00 0.00 0.00 78 1010.7
20200401031323 77 239 2.0 6.0 0.00 0.00 0.00 78 1010.6
20200401030847 77 228 3.0 6.0 0.00 0.00 0.00 78 1010.6
20200401030323 77 238 3.0 8.0 0.00 0.00 0.00 77 1010.6
20200401025833 77 257 3.0 8.0 0.00 0.00 0.00 77 1010.7
20200401025349 77 248 3.0 7.0 0.00 0.00 0.00 77 1010.7
20200401024840 77 259 4.0 11.0 0.00 0.00 0.00 77 1010.8
20200401024334 77 250 4.0 11.0 0.00 0.00 0.00 76 1010.7
20200401023827 77 279 2.0 7.0 0.00 0.00 0.00 76 1010.8
20200401023349 78 232 3.0 8.0 0.00 0.00 0.00 75 1010.7
20200401022840 78 268 2.0 9.0 0.00 0.00 0.00 75 1010.7
20200401022335 78 262 4.0 9.0 0.00 0.00 0.00 75 1010.8
20200401021821 78 300 2.0 9.0 0.00 0.00 0.00 74 1010.8
20200401021344 78 248 4.0 8.0 0.00 0.00 0.00 74 1010.8
20200401020837 78 263 2.0 10.0 0.00 0.00 0.00 74 1010.9
20200401020323 78 271 3.0 9.0 0.00 0.00 0.00 73 1010.8
20200401015839 78 230 3.0 8.0 0.00 0.00 0.00 73 1010.6
20200401015332 78 271 3.0 8.0 0.00 0.00 0.00 72 1010.6
20200401014826 78 266 4.0 9.0 0.00 0.00 0.00 72 1010.6
20200401014339 79 259 4.0 10.0 0.00 0.00 0.00 71 1010.6
20200401013833 79 283 5.0 10.0 0.00 0.00 0.00 71 1010.4
20200401013337 79 269 3.0 7.0 0.00 0.00 0.00 70 1010.6
20200401012827 79 283 3.0 6.0 0.00 0.00 0.00 70 1010.4
20200401012342 79 275 3.0 9.0 0.00 0.00 0.00 69 1010.4
20200401011835 79 248 4.0 9.0 0.00 0.00 0.00 69 1010.3
20200401011330 80 203 4.0 11.0 0.00 0.00 0.00 69 1010.4
20200401010823 80 256 5.0 11.0 0.00 0.00 0.00 68 1010.2
20200401010332 80 237 3.0 10.0 0.00 0.00 0.00 68 1010.2
20200401005826 80 255 6.0 10.0 0.00 0.00 0.00 67 1010.2
20200401005339 80 288 2.0 7.0 0.00 0.00 0.00 67 1010.3
20200401004833 80 240 2.0 6.0 0.00 0.00 0.00 66 1010.2
20200401004329 80 269 3.0 10.0 0.00 0.00 0.00 66 1010.1
20200401003840 81 263 4.0 13.0 0.00 0.00 0.00 65 1010.1
20200401003334 81 238 4.0 13.0 0.00 0.00 0.00 65 1010.1
20200401002849 81 278 5.0 11.0 0.00 0.00 0.00 64 1010.2
20200401002322 81 252 3.0 9.0 0.00 0.00 0.00 64 1010.1
20200401001822 81 259 4.0 10.0 0.00 0.00 0.00 63 1010.1
20200401001333 82 250 5.0 10.0 0.00 0.00 0.00 63 1010.0
20200401000829 82 280 4.0 11.0 0.00 0.00 0.00 62 1009.9
20200401000322 82 244 5.0 11.0 0.00 0.00 0.00 62 1009.9
20200331235834 82 248 5.0 10.0 0.00 0.00 0.00 61 1009.9
20200331235331 82 269 5.0 12.0 0.00 0.00 0.00 61 1009.8
20200331234824 82 259 6.0 12.0 0.00 0.00 0.00 60 1009.7
20200331234339 83 236 5.0 12.0 0.00 0.00 0.00 60 1009.7
20200331233832 83 269 2.0 9.0 0.00 0.00 0.00 60 1009.6
20200331233328 83 284 5.0 11.0 0.00 0.00 0.00 59 1009.6
20200331232836 83 242 4.0 12.0 0.00 0.00 0.00 59 1009.6
20200331232330 83 264 5.0 12.0 0.00 0.00 0.00 59 1009.5
20200331231828 84 283 5.0 12.0 0.00 0.00 0.00 58 1009.4
20200331231341 84 244 6.0 12.0 0.00 0.00 0.00 58 1009.4
20200331230833 84 293 6.0 12.0 0.00 0.00 0.00 57 1009.4
20200331230404 84 269 6.0 13.0 0.00 0.00 0.00 57 1009.5
20200331225850 85 260 4.0 13.0 0.00 0.00 0.00 56 1009.4
20200331225345 85 248 4.0 12.0 0.00 0.00 0.00 55 1009.5
20200331224821 85 244 5.0 12.0 0.00 0.00 0.00 54 1009.5
20200331224331 86 237 6.0 14.0 0.00 0.00 0.00 53 1009.5
20200331223848 86 251 4.0 14.0 0.00 0.00 0.00 54 1009.5
20200331223340 86 251 4.0 12.0 0.00 0.00 0.00 54 1009.5
20200331222832 86 278 7.0 12.0 0.00 0.00 0.00 53 1009.5
20200331222349 86 291 4.0 14.0 0.00 0.00 0.00 53 1009.4
20200331221843 86 255 6.0 14.0 0.00 0.00 0.00 53 1009.5
20200331221337 87 271 5.0 13.0 0.00 0.00 0.00 52 1009.5
20200331220831 87 262 6.0 13.0 0.00 0.00 0.00 51 1009.6
20200331220332 87 264 7.0 15.0 0.00 0.00 0.00 51 1009.6
20200331215823 88 276 8.0 15.0 0.00 0.00 0.00 51 1009.6
20200331215343 88 259 4.0 14.0 0.00 0.00 0.00 51 1009.7
20200331214835 88 241 6.0 14.0 0.00 0.00 0.00 50 1009.6
20200331214337 88 210 5.0 11.0 0.00 0.00 0.00 49 1009.6
20200331213831 88 229 4.0 14.0 0.00 0.00 0.00 49 1009.7
20200331213347 88 326 7.0 14.0 0.00 0.00 0.00 49 1009.7
20200331212838 89 257 6.0 12.0 0.00 0.00 0.00 49 1009.7
20200331212333 89 301 6.0 12.0 0.00 0.00 0.00 48 1009.7
20200331211840 89 162 6.0 15.0 0.00 0.00 0.00 48 1009.7
20200331211335 89 224 6.0 15.0 0.00 0.00 0.00 48 1009.6
20200331210830 89 300 6.0 13.0 0.00 0.00 0.00 47 1009.8
20200331210322 89 283 5.0 12.0 0.00 0.00 0.00 48 1009.8
20200331205835 89 256 5.0 12.0 0.00 0.00 0.00 47 1009.8
20200331201813 91 236 2.0 8.0 0.00 0.00 0.00 44 1010.0
20200331201329 91 203 2.0 13.0 0.00 0.00 0.00 44 1010.1
20200331200825 90 269 4.0 13.0 0.00 0.00 0.00 44 1010.2
20200331200321 90 286 3.0 12.0 0.00 0.00 0.00 45 1010.3
20200331195815 90 247 6.0 13.0 0.00 0.00 0.00 45 1010.3
20200331195314 90 221 5.0 14.0 0.00 0.00 0.00 44 1010.3
20200331194829 89 261 5.0 12.0 0.00 0.00 0.00 44 1010.3
20200331194326 89 294 4.0 14.0 0.00 0.00 0.00 45 1010.4
20200331193821 89 278 7.0 14.0 0.00 0.00 0.00 45 1010.4
20200331193336 89 270 4.0 15.0 0.00 0.00 0.00 45 1010.3
20200331192812 89 287 8.0 15.0 0.00 0.00 0.00 45 1010.5
20200331192327 89 262 6.0 15.0 0.00 0.00 0.00 47 1010.6
20200331191822 90 240 4.0 10.0 0.00 0.00 0.00 47 1010.6
20200331191322 90 233 5.0 11.0 0.00 0.00 0.00 47 1010.6
20200331190816 90 263 5.0 14.0 0.00 0.00 0.00 47 1010.8
20200331190312 89 257 6.0 14.0 0.00 0.00 0.00 48 1010.8
20200331185821 89 235 6.0 13.0 0.00 0.00 0.00 48 1010.9
20200331185317 90 286 5.0 13.0 0.00 0.00 0.00 48 1011.0
20200331184816 89 291 5.0 13.0 0.00 0.00 0.00 48 1011.0
20200331184312 89 224 7.0 13.0 0.00 0.00 0.00 48 1011.0
20200331183829 89 260 5.0 11.0 0.00 0.00 0.00 48 1011.2
20200331183325 89 281 4.0 7.0 0.00 0.00 0.00 48 1011.2
20200331182829 89 293 3.0 11.0 0.00 0.00 0.00 47 1011.2
20200331182323 89 264 3.0 7.0 0.00 0.00 0.00 48 1011.3
20200331181819 89 262 2.0 14.0 0.00 0.00 0.00 48 1011.4
20200331181313 89 214 4.0 14.0 0.00 0.00 0.00 46 1011.6
20200331180824 89 200 3.0 11.0 0.00 0.00 0.00 46 1011.6
20200331180318 89 212 3.0 10.0 0.00 0.00 0.00 47 1011.7
20200331175823 89 231 4.0 10.0 0.00 0.00 0.00 47 1011.8
20200331175318 88 240 4.0 10.0 0.00 0.00 0.00 48 1011.8
20200331174827 88 289 4.0 11.0 0.00 0.00 0.00 49 1012.0
20200331174332 89 268 5.0 11.0 0.00 0.00 0.00 46 1012.1
20200331173829 89 253 4.0 9.0 0.00 0.00 0.00 47 1012.3
20200331173324 88 284 1.0 11.0 0.00 0.00 0.00 49 1012.4
20200331172811 88 314 6.0 11.0 0.00 0.00 0.00 49 1012.6
20200331172336 87 250 3.0 13.0 0.00 0.00 0.00 50 1012.6
20200331171831 88 255 6.0 13.0 0.00 0.00 0.00 50 1012.6
20200331171322 87 210 3.0 10.0 0.00 0.00 0.00 52 1012.7
20200331170820 87 245 5.0 10.0 0.00 0.00 0.00 52 1012.8
20200331170331 86 212 3.0 10.0 0.00 0.00 0.00 52 1013.0
20200331165823 86 278 3.0 10.0 0.00 0.00 0.00 53 1013.0
20200331165318 86 264 5.0 12.0 0.00 0.00 0.00 52 1013.0
20200331164815 87 250 5.0 12.0 0.00 0.00 0.00 52 1013.1
20200331164329 87 278 2.0 9.0 0.00 0.00 0.00 51 1013.2
20200331163835 86 268 4.0 9.0 0.00 0.00 0.00 50 1013.3
20200331163331 86 232 3.0 8.0 0.00 0.00 0.00 50 1013.3
20200331162833 86 198 2.0 9.0 0.00 0.00 0.00 52 1013.4
20200331162328 85 248 4.0 12.0 0.00 0.00 0.00 51 1013.5
20200331161819 85 240 5.0 12.0 0.00 0.00 0.00 52 1013.5
20200331161313 85 270 4.0 9.0 0.00 0.00 0.00 52 1013.5
20200331160839 86 260 5.0 9.0 0.00 0.00 0.00 52 1013.6
20200331160314 86 234 2.0 8.0 0.00 0.00 0.00 52 1013.6
20200331155827 85 280 4.0 8.0 0.00 0.00 0.00 52 1013.7
20200331155321 85 243 3.0 8.0 0.00 0.00 0.00 55 1013.7
20200331154821 86 219 4.0 10.0 0.00 0.00 0.00 55 1013.9
20200331154316 86 262 5.0 10.0 0.00 0.00 0.00 53 1014.1
20200331153811 85 266 4.0 10.0 0.00 0.00 0.00 54 1014.1
20200331153329 85 131 4.0 10.0 0.00 0.00 0.00 56 1014.1
20200331152824 85 242 3.0 8.0 0.00 0.00 0.00 54 1014.2
20200331152319 85 266 3.0 9.0 0.00 0.00 0.00 58 1014.2
20200331151823 84 245 2.0 8.0 0.00 0.00 0.00 59 1014.2
20200331151318 83 268 3.0 8.0 0.00 0.00 0.00 62 1014.3
20200331150829 82 349 4.0 9.0 0.00 0.00 0.00 61 1014.4
20200331150333 82 239 5.0 10.0 0.00 0.00 0.00 61 1014.5
20200331145822 83 255 4.0 9.0 0.00 0.00 0.00 60 1014.5
20200331145320 83 253 3.0 8.0 0.00 0.00 0.00 60 1014.4
20200331144821 83 245 3.0 10.0 0.00 0.00 0.00 60 1014.5
20200331144316 83 251 4.0 10.0 0.00 0.00 0.00 59 1014.6
20200331143811 83 181 4.0 7.0 0.00 0.00 0.00 61 1014.6
20200331143324 83 282 2.0 7.0 0.00 0.00 0.00 61 1014.5
20200331142829 82 231 4.0 7.0 0.00 0.00 0.00 62 1014.6
20200331142322 82 287 4.0 10.0 0.00 0.00 0.00 63 1014.7
20200331141817 82 243 4.0 9.0 0.00 0.00 0.00 62 1014.4
20200331141313 81 243 3.0 7.0 0.00 0.00 0.00 63 1014.6
20200331140839 81 268 3.0 9.0 0.00 0.00 0.00 63 1014.5
20200331140335 81 221 3.0 9.0 0.00 0.00 0.00 65 1014.5
20200331135830 81 210 1.0 9.0 0.00 0.00 0.00 66 1014.5
20200331135325 80 204 4.0 9.0 0.00 0.00 0.00 67 1014.6
20200331134820 80 247 4.0 9.0 0.00 0.00 0.00 67 1014.8
20200331134334 80 214 3.0 6.0 0.00 0.00 0.00 69 1014.9
20200331133811 80 224 3.0 6.0 0.00 0.00 0.00 68 1015.0
20200331133326 80 209 3.0 5.0 0.00 0.00 0.00 68 1015.0
20200331132821 79 217 2.0 6.0 0.00 0.00 0.00 70 1015.1
20200331132337 79 199 2.0 6.0 0.00 0.00 0.00 71 1015.1
20200331131813 78 247 2.0 5.0 0.00 0.00 0.00 73 1015.1
20200331131329 78 236 2.0 5.0 0.00 0.00 0.00 73 1015.0
20200331130824 78 257 2.0 5.0 0.00 0.00 0.00 74 1015.1
20200331130329 77 236 1.0 4.0 0.00 0.00 0.00 75 1015.1
20200331125824 77 221 2.0 4.0 0.00 0.00 0.00 75 1015.2
20200331125330 77 249 1.0 5.0 0.00 0.00 0.00 76 1015.3
20200331124826 76 202 2.0 5.0 0.00 0.00 0.00 77 1015.3
20200331124317 76 264 1.0 3.0 0.00 0.00 0.00 78 1015.5
20200331123827 76 258 1.0 3.0 0.00 0.00 0.00 79 1015.4
20200331123332 75 224 1.0 3.0 0.00 0.00 0.00 80 1015.3
20200331122828 75 263 0.0 3.0 0.00 0.00 0.00 84 1015.3
20200331122322 74 229 0.0 3.0 0.00 0.00 0.00 85 1015.3
20200331121821 74 262 0.0 0.0 0.00 0.00 0.00 85 1015.3
20200331121340 74 259 0.0 0.0 0.00 0.00 0.00 85 1015.3
20200331120814 74 261 0.0 0.0 0.00 0.00 0.00 87 1015.3
20200331120330 73 261 0.0 0.0 0.00 0.00 0.00 87 1015.3
20200331115827 73 262 0.0 0.0 0.00 0.00 0.00 88 1015.3
20200331115322 73 262 0.0 1.0 0.00 0.00 0.00 87 1015.4
20200331114815 73 262 0.0 1.0 0.00 0.00 0.00 87 1015.4
20200331114311 72 250 0.0 0.0 0.00 0.00 0.00 87 1015.4
20200331113826 72 250 0.0 0.0 0.00 0.00 0.00 87 1015.4
20200331113322 72 250 0.0 0.0 0.00 0.00 0.00 87 1015.3
20200331112819 72 249 0.0 0.0 0.00 0.00 0.00 87 1015.3